#timestamp,LO_Frequency,Hit,StdDev 
1693188015.5,286046997.1,N
1693188035.3,286046996.5,N
1693188055.2,286046995.4,N
1693188075.9,286046991.7,N
1693188095.7,286046992.6,N
1693188115.6,286046992.5,N
1693188135.4,286046992.2,N
1693188155.2,286046994.1,N
1693188175.1,286046994.5,N
1693188176.0,286046994.5,N
1693188195.8,286046993.8,N
1693188215.6,286046994.5,N
1693188235.5,286046994.8,N
1693188255.3,286046992.0,N
1693188275.1,286046992.5,N
1693188295.9,286046989.2,N
1693188315.7,286046992.9,N
1693188335.5,286046994.7,N
1693188355.4,286046994.8,N
1693188375.2,286046990.2,Y
1693188395.0,286046997.2,P
1693188395.9,286046997.2,N
1693188415.8,286046997.7,N
1693188435.6,286046996.9,N
1693188455.4,286046997.1,N
1693188475.3,286046996.5,Y
1693188495.1,286047002.2,P
1693188515.8,286047000.5,N
1693188535.7,286047002.4,N
1693188555.5,286047002.7,N
1693188575.3,286046999.7,N
1693188595.2,286047002.4,N
1693188615.0,286047002.2,N
1693188615.9,286047002.2,N
1693188635.7,286047002.3,N
1693188655.6,286047000.0,N
1693188675.4,286047002.2,N
1693188695.2,286047001.6,N
1693188715.1,286047004.3,N
1693188716.0,286047004.3,N
1693188735.8,286047004.3,N
1693188755.6,286047003.1,N
1693188775.5,286047003.3,N
1693188795.3,286047003.7,N
1693188815.1,286047003.9,N
1693188835.9,286047003.3,N
1693188855.7,286047003.3,N
1693188875.6,286047005.9,Y
1693188895.4,286047002.3,P
1693188915.2,286047000.2,P
1693188935.1,286046998.5,N
1693188936.0,286046998.5,N
1693188955.8,286046999.3,N
1693188975.6,286047000.9,N
1693188995.5,286046998.5,N
1693189015.3,286046999.9,N
1693189035.1,286047003.2,N
1693189055.9,286047001.3,N
1693189075.7,286047001.7,N
1693189095.5,286047003.5,N
1693189115.4,286047003.3,N
1693189135.2,286047003.9,N
1693189155.0,286047001.3,N
1693189155.9,286047001.3,N
1693189175.8,286047001.4,N
1693189195.6,286047003.5,N
1693189215.4,286047003.7,N
1693189235.3,286047003.1,N
1693189255.1,286047003.8,N
1693189256.0,286047003.8,N
1693189275.8,286047006.0,Y
1693189295.7,286047001.9,P
1693189315.5,286047003.5,P
1693189335.3,286047006.0,P
1693189355.2,286047003.6,N
1693189375.9,286047003.6,N
1693189395.7,286047003.6,N
1693189415.6,286047003.0,N
1693189435.4,286047005.9,Y
1693189455.2,286047001.6,P
1693189475.1,286047009.2,P
1693189476.0,286047009.2,N
1693189495.8,286047008.8,N
1693189515.6,286047006.0,N
1693189535.5,286047001.8,N
1693189555.3,286047001.4,N
1693189575.1,286047002.8,N
1693189595.9,286047001.9,N
1693189615.7,286047002.6,N
1693189635.5,286047002.7,N
1693189655.4,286047001.9,N
1693189675.2,286047003.6,N
1693189695.0,286047001.7,N
1693189695.9,286047001.7,N
1693189715.8,286047000.1,N
1693189735.6,286047002.7,N
1693189755.4,286047002.6,N
1693189775.3,286047004.0,N
1693189795.1,286047003.3,N
1693189796.0,286047003.3,N
1693189815.8,286047003.8,N
1693189835.7,286047003.4,N
1693189855.5,286047003.6,N
1693189875.3,286047006.0,N
1693189895.2,286047003.6,N
1693189915.9,286047004.2,N
1693189935.7,286047004.2,N
1693189955.6,286047003.6,N
1693189975.4,286047005.8,N
1693189995.2,286047004.4,N
1693190015.1,286047002.2,N
1693190016.0,286047002.2,N
1693190035.8,286047004.2,N
1693190055.6,286047000.1,N
1693190075.5,286047000.5,N
1693190095.3,286047002.2,N
1693190115.1,286047003.1,N
1693190135.9,286047001.5,N
1693190155.7,286047003.2,N
1693190175.5,286047003.7,N
1693190195.4,286047005.5,Y
1693190215.2,286047001.1,P
1693190235.0,286047002.1,N
1693190235.9,286047002.1,N
1693190255.8,286047001.7,N
1693190275.6,286047005.5,Y
1693190295.4,286047002.2,P
1693190315.3,286047001.6,P
1693190335.1,286046999.8,N
1693190355.8,286047000.6,N
1693190375.7,286047000.7,N
1693190395.5,286047000.7,N
1693190415.3,286046998.6,N
1693190435.2,286047000.3,N
1693190455.0,286046998.9,N
1693190455.9,286046998.9,N
1693190475.7,286047001.1,N
1693190495.6,286046999.8,N
1693190515.4,286047002.6,N
1693190535.2,286047002.8,N
1693190555.1,286047002.7,N
1693190556.0,286047002.7,N
1693190575.8,286047002.2,N
1693190595.6,286047002.4,N
1693190615.5,286047002.0,N
1693190635.3,286047001.5,N
1693190655.1,286046999.8,N
1693190675.9,286046999.8,N
1693190695.7,286047003.7,N
1693190715.5,286046999.8,N
1693190735.4,286047002.6,N
1693190755.2,286047002.6,N
1693190775.0,286047002.2,N
1693190775.9,286047002.2,N
1693190795.8,286047001.5,N
1693190815.6,286047003.2,N
1693190835.4,286047001.5,N
1693190855.3,286047002.9,N
1693190875.1,286047001.7,N
1693190895.8,286047001.4,N
1693190915.7,286047004.4,Y
1693190935.5,286047002.7,P
1693190955.3,286047001.6,N
1693190975.2,286047000.1,N
1693190995.0,286046999.8,N
1693190995.9,286046999.8,N
1693191015.7,286047001.4,N
1693191035.6,286047001.9,N
1693191055.4,286047000.0,N
1693191075.2,286047000.8,N
1693191095.1,286046998.5,N
1693191096.0,286046998.5,N
1693191115.8,286046999.7,N
1693191135.7,286047002.3,N
1693191155.5,286047001.2,N
1693191175.3,286047000.5,N
1693191195.1,286047001.7,N
1693191215.9,286047000.0,N
1693191235.7,286046999.0,N
1693191255.5,286047000.8,N
1693191275.4,286047002.2,N
1693191295.2,286047002.9,N
1693191315.0,286047001.7,N
1693191316.0,286047001.7,N
1693191335.8,286047003.8,Y
1693191355.6,286047003.5,P
1693191375.5,286047004.0,N
1693191395.3,286047007.2,P
1693191415.1,286047003.2,N
1693191435.9,286047003.6,N
1693191455.7,286047004.2,N
1693191475.5,286047001.3,N
1693191495.4,286047001.9,N
1693191515.2,286047002.1,N
1693191535.0,286047002.7,N
1693191535.9,286047002.7,N
1693191555.8,286047001.4,N
1693191575.6,286047005.5,Y
1693191595.4,286047002.1,P
